Regional Weather Roundup
Issued by NWS San Angelo, TX

Home | Current Version | Previous Version | Text Only | Print | Product List | Glossary On
Versions: 1 2 3 4 5 6 7 8 9 10 11 12 13 14 15 16 17 18 19 20 21 22 23 24 25 26 27 28 29 30 31 32 33 34 35 36 37 38 39 40 41 42 43 44 45 46 47 48 49 50
000
ASUS44 KSJT 241510
RWRSJT
WEST CENTRAL TEXAS REGIONAL WEATHER ROUNDUP
NATIONAL WEATHER SERVICE SAN ANGELO TX
1000 AM CDT THU JUL 24 2014

NOTE: "FAIR" INDICATES FEW OR NO CLOUDS BELOW 12,000 FEET WITH NO
SIGNIFICANT WEATHER AND/OR OBSTRUCTIONS TO VISIBILITY.

TXZ049-054-064>066-071>073-076>078-098-099-113-114-127-128-139-140-
154-155-168>170-241600
...LOCATIONS ACROSS WEST CENTRAL TEXAS...

CITY           SKY/WX    TMP DP  RH WIND       PRES   REMARKS
SAN ANGELO     PTSUNNY   82  66  58 CALM      30.11R
ABILENE        MOSUNNY   85  67  54 CALM      30.11S
DYESS AFB      SUNNY     87  67  50 SW3       30.10S
JUNCTION       CLOUDY    80  68  66 CALM      30.10S
SWEETWATER     SUNNY     85  63  46 SW8       30.17F
BROWNWOOD      SUNNY     84  68  58 CALM      30.10S
COLEMAN        SUNNY     82  67  58 CALM      30.11S
SONORA         MOSUNNY   82  66  57 SE5       30.16R
OZONA          FAIR      84  64  51 CALM      30.15F
BRADY          SUNNY     81  70  69 E5        30.11S
$$

TEXAS PANHANDLE/OKLAHOMA PANHANDLE

CITY           SKY/WX    TMP DP  RH WIND       PRES   REMARKS
AMARILLO       SUNNY     83  63  50 SW13      30.21S
BORGER         SUNNY     83  61  47 SW14      30.17S
CANADIAN       SUNNY     85  67  54 W8        30.11F
DALHART        SUNNY     85  58  39 SW10      30.23S
DUMAS          SUNNY     83  59  45 SW18G24   30.20F
GUYMON         NOT AVBL
HEREFORD       SUNNY     82  64  55 SW12      30.24R
PAMPA          SUNNY     83  61  47 W12       30.19S
PERRYTON       SUNNY     87  61  40 W14       30.13F
$$

SOUTHERN PANHANDLE/SOUTH PLAINS/ROLLING PLAINS

CITY           SKY/WX    TMP DP  RH WIND       PRES   REMARKS
LUBBOCK        MOSUNNY   83  62  49 SW14      30.20S
SNYDER         SUNNY     83  63  51 SW6       30.16R
CHILDRESS      SUNNY     85  68  56 NW5       30.12R
SEMINOLE       SUNNY     82  60  46 SW6       30.21R
$$

PERMIAN BASIN

CITY           SKY/WX    TMP DP  RH WIND       PRES   REMARKS
MIDLAND        SUNNY     84  63  49 VRB6      30.16S
ODESSA           N/A    N/A N/A N/A MISG      30.18S
WINK           SUNNY     85  62  46 SE7       30.14S
$$

FAR WEST/SOUTHWEST MOUNTAINS/TRANS PECOS

CITY           SKY/WX    TMP DP  RH WIND       PRES   REMARKS
ALPINE         SUNNY     79  56  43 S3        30.31R
DRYDEN           N/A     87  64  46 E6        30.10S
EL PASO        MOSUNNY   81  53  37 N3        30.21R
FORT STOCKTON  SUNNY     84  58  40 S7        30.17R
GUADALUPE PASS SUNNY     78  56  46 VRB7      30.35R
MARFA          SUNNY     77  54  44 S6        30.31S
PECOS          SUNNY     83  58  42 SE5       30.14S
$$

DALLAS/FORT WORTH METROPLEX

CITY           SKY/WX    TMP DP  RH WIND       PRES   REMARKS
DFW AIRPORT    PTSUNNY   83  69  62 VRB6      30.08R
FTW MEACHAM    MOSUNNY   79  70  73 NE7       30.09R
DAL-EXECUTIVE  SUNNY     82  70  66 E5        30.08R
GRAND PRAIRIE  SUNNY     79  66  65 CALM      30.08
ADDISON        NOT AVBL
MESQUITE       SUNNY     79  70  73 CALM      30.08F
LANCASTER      MOSUNNY   80  67  64 CALM      30.08F
$$

NORTH CENTRAL TEXAS

CITY           SKY/WX    TMP DP  RH WIND       PRES   REMARKS
SHRMAN/DENISON SUNNY     80  68  67 E3        30.10S
GAINESVILLE    MOSUNNY   79  68  69 CALM      30.11S
BRIDGEPORT     SUNNY     82  67  60 E3        30.11R
DENTON         MOSUNNY   82  70  66 CALM      30.08S
WAXAHACHIE     MOSUNNY   80  66  61 CALM      30.09F
GRANBURY       SUNNY     84  65  53 SE3       30.09F
$$

WESTERN NORTH TEXAS

CITY           SKY/WX    TMP DP  RH WIND       PRES   REMARKS
WICHITA FALLS  PTSUNNY   82  71  69 S9        30.08S
VERNON         SUNNY     85  70  61 E6        30.09R
BRECKENRIDGE   MOSUNNY   85  67  55 SE3       30.09R HAZE
COMANCHE       SUNNY     82  69  66 SE3       30.11R
$$

CENTRAL AND SOUTH CENTRAL TEXAS

CITY           SKY/WX    TMP DP  RH WIND       PRES   REMARKS
AUSTIN/BERGSTM CLOUDY    77  75  93 CALM      30.05F FOG
WACO           MOSUNNY   82  70  66 SE5       30.07S
HILLSBORO      MOSUNNY   82  67  58 CALM      30.08S
TEMPLE         MOSUNNY   81  68  65 S7        30.07S
KILLEEN-GRAY   PTSUNNY   79  70  73 S5        30.08S
FORT HOOD      MOSUNNY   83  71  67 CALM      30.07F
GEORGETOWN     MOSUNNY   82  72  69 S7        30.07F
LAGO VISTA     PTSUNNY   81  72  73 CALM      30.09F
SAN MARCOS     NOT AVBL
NEW BRAUNFELS  CLOUDY    80  73  79 NE8       30.06R
RANDOLPH AFB   CLOUDY    80  71  74 E2        30.06R
SAN ANTONIO    CLOUDY    83  69  62 NW5       30.06S
STINSON        CLOUDY    82  72  71 CALM      30.03F
PLEASANTON     NOT AVBL
LA GRANGE      PTSUNNY   79  76  89 CALM      30.04S
GIDDINGS       PTSUNNY   78  74  86 CALM      30.10S
$$

EAST TEXAS

CITY           SKY/WX    TMP DP  RH WIND       PRES   REMARKS
PARIS          PTSUNNY   70  64  83 CALM      30.10S
CLARKSVILLE    PTSUNNY   71  71  99 CALM      30.09R
TYLER          MOSUNNY   76  69  79 CALM      30.07S
LONGVIEW       MOSUNNY   76  69  79 CALM      30.06F
PALESTINE      NOT AVBL
NACOGDOCHES    SUNNY     81  70  69 N8        30.06S
$$

TEXAS HILL COUNTRY AND EDWARDS PLATEAU

CITY           SKY/WX    TMP DP  RH WIND       PRES   REMARKS
LLANO          CLOUDY    84  72  65 E6        30.12R
HORSESHOE BAY  PTSUNNY   80  69  68 CALM      30.09R
KERRVILLE      CLOUDY    81  69  66 SE3       30.11R
FREDERICKSBRG  CLOUDY    79  67  66 CALM      30.11R
ROCKSPRINGS    CLOUDY    81  68  65 CALM      30.14F
HONDO          CLOUDY    81  70  69 NE3       30.07S
UVALDE         CLOUDY    81  72  74 E3        30.06R
DEL RIO        MOSUNNY   86  68  54 E6        30.04R
$$

SOUTHEAST TEXAS

CITY           SKY/WX    TMP DP  RH WIND       PRES   REMARKS
COLLEGE STN    SUNNY     81  69  67 NE6       30.06R
CALDWELL       MOSUNNY   79  73  83 NE3       30.09R
CROCKETT       SUNNY     82  72  69 N3        30.08F
BRENHAM        MOSUNNY   81  70  69 E3        30.07R
HUNTSVILLE     MOSUNNY   81  69  67 VRB3      30.06R
CONROE         MOSUNNY   81  70  69 N5        30.05R
HOUSTON BUSH   MOSUNNY   82  72  71 VRB5      30.03S
HOUSTON HOBBY  MOSUNNY   85  73  67 N3        30.02R
PERLAND        SUNNY     83  72  69 NW5       30.04R
WHARTON        MOSUNNY   85  74  71 W8        30.04S
$$

THE UPPER TEXAS COAST

CITY           SKY/WX    TMP DP  RH WIND       PRES   REMARKS
ORANGE         SUNNY     79  71  77 N6        30.04F
PORT ARTHUR    SUNNY     80  71  74 N13       30.02F
GALVESTON      MOSUNNY   85  74  69 N9        30.02S
ANGLETON       MOSUNNY   83  75  77 NW7       30.02S
BAY CITY       DRIZZLE   81  81 100 CALM      30.03S
$$

TEXAS COASTAL BEND, RIO GRANDE PLAINS DEEP SOUTH TEXAS

CITY           SKY/WX    TMP DP  RH WIND       PRES   REMARKS
VICTORIA       PTSUNNY   84  77  79 NW7       30.04R
BEEVILLE       FAIR      86  74  68 S5        30.03R
ROCKPORT       MOSUNNY   84  76  76 NW6       30.01F
PORT ARANSAS   MOSUNNY   83  75  77 SW5       30.01S
PORT LAVACA    PTSUNNY   84  76  76 NW7       30.03R
CORPUS CHRISTI PTSUNNY   84  75  74 VRB3      30.02R
KINGSVILLE NAS PTSUNNY   86  78  77 S6        30.01R
COTULLA        PTSUNNY   83  72  69 E7        30.02S
LAREDO         SUNNY     87  73  62 VRB5      30.03R
BROWNSVILLE    MOSUNNY   86  75  69 S12       30.00S
PORT ISABEL    MOSUNNY   87  73  62 S9        30.00R HAZE
HEBBRONVILLE   SUNNY     84  73  69 SE5       30.03S
MCALLEN        SUNNY     87  74  64 SE13      29.99S
WESLACO        PTSUNNY   86  73  65 S12       29.99F
FALFURRIAS     SUNNY     75  70  83 SE5       30.01R
EDINBURG       MOSUNNY   88  74  65 S9        30.00R
$$


USA.gov is the U.S. government's official web portal to all federal, state and local government web resources and services.